Location: Peebles
(55.6412°N, 3.1714°W)
Time: 20:51:33
(UTC+01:00)

deb Kosmos-2123 - Pass Details

Date: 08 July 2022
Orbit: 942 x 985 km, 82.9° (Epoch: 17 August)

Event Time Altitude Azimuth Distance (km) Brightness Sun altitude
Exits shadow 23:25:33 - 124° (SE) 3,127 ? -8.4°
Reaches altitude 10° 23:27:03 10° 115° (ESE) 2,737 ? -8.5°
Maximum altitude 23:31:00 18° 75° (ENE) 2,222 ? -8.7°
Drops below altitude 10° 23:34:56 10° 36° (NE) 2,734 ? -9.0°
Sets 23:38:16 0° 19° (NNE) 3,679 ? -9.1°
